TimeCDT,TemperatureF,Dew PointF,Humidity,Sea Level PressureIn,VisibilityMPH,Wind Direction,Wind SpeedMPH,Gust SpeedMPH,PrecipitationIn,Events,Conditions,WindDirDegrees,DateUTC
12:53 AM,37.0,30.0,76,30.30,10.0,ESE,3.5,-,N/A,,Clear,110,2013-03-29 05:53:00
1:53 AM,37.9,30.0,73,30.30,10.0,East,3.5,-,N/A,,Clear,100,2013-03-29 06:53:00
2:53 AM,37.9,30.0,73,30.29,10.0,ESE,3.5,-,N/A,,Partly Cloudy,120,2013-03-29 07:53:00
3:53 AM,37.9,30.0,73,30.27,10.0,ESE,3.5,-,N/A,,Mostly Cloudy,110,2013-03-29 08:53:00
4:53 AM,36.0,30.9,82,30.27,10.0,Calm,Calm,-,N/A,,Mostly Cloudy,0,2013-03-29 09:53:00
5:53 AM,37.0,30.9,79,30.28,10.0,SSE,4.6,-,N/A,,Mostly Cloudy,150,2013-03-29 10:53:00
6:53 AM,37.0,30.0,76,30.29,10.0,SE,5.8,-,N/A,,Overcast,140,2013-03-29 11:53:00
7:53 AM,37.0,30.9,79,30.30,10.0,ESE,5.8,-,N/A,,Overcast,120,2013-03-29 12:53:00
8:53 AM,42.1,30.9,65,30.31,10.0,SE,4.6,-,N/A,,Mostly Cloudy,130,2013-03-29 13:53:00
9:53 AM,46.9,33.1,59,30.30,10.0,ESE,6.9,-,N/A,,Clear,120,2013-03-29 14:53:00
10:53 AM,50.0,32.0,50,30.30,10.0,SE,8.1,-,N/A,,Overcast,130,2013-03-29 15:53:00
11:53 AM,52.0,30.9,45,30.28,10.0,East,8.1,-,N/A,,Mostly Cloudy,80,2013-03-29 16:53:00
12:53 PM,54.0,32.0,43,30.27,10.0,Variable,5.8,-,N/A,,Overcast,0,2013-03-29 17:53:00
1:53 PM,54.0,28.9,38,30.25,10.0,SE,3.5,-,N/A,,Overcast,140,2013-03-29 18:53:00
2:53 PM,55.0,34.0,45,30.23,10.0,NE,8.1,-,N/A,,Overcast,50,2013-03-29 19:53:00
3:53 PM,55.9,34.0,44,30.22,10.0,NNE,6.9,-,N/A,,Partly Cloudy,20,2013-03-29 20:53:00
4:53 PM,55.0,32.0,42,30.22,10.0,NNE,3.5,-,N/A,,Overcast,20,2013-03-29 21:53:00
5:53 PM,55.0,35.1,47,30.21,10.0,NNE,6.9,-,N/A,,Mostly Cloudy,30,2013-03-29 22:53:00
6:53 PM,51.1,37.9,61,30.22,10.0,North,5.8,-,N/A,,Mostly Cloudy,10,2013-03-29 23:53:00
7:53 PM,45.0,37.0,74,30.22,10.0,NNE,6.9,-,N/A,,Clear,20,2013-03-30 00:53:00
8:53 PM,45.0,37.9,76,30.24,10.0,NNE,3.5,-,N/A,,Mostly Cloudy,30,2013-03-30 01:53:00
9:53 PM,44.1,37.0,76,30.25,10.0,NE,3.5,-,N/A,,Scattered Clouds,40,2013-03-30 02:53:00
10:53 PM,42.1,36.0,79,30.24,10.0,NE,3.5,-,N/A,,Mostly Cloudy,50,2013-03-30 03:53:00
11:53 PM,44.1,33.1,65,30.23,10.0,Calm,Calm,-,N/A,,Partly Cloudy,0,2013-03-30 04:53:00